This demonstration page uses our WeatherBlox Daily Observations layout. Learn more.

Left ArrowRight Arrow

39.08367, -84.50855

Hourly Observations for July 4, 2020

Temp ( °F °C ) Dew Point ( °F °C ) Humidity (%) Winds ( mph kmh ) Pressure ( in mb ) Visibility ( mi km ) Precip ( " mm )
12:53 am 00:53 Clear 70 21.1 67 19.4 90 90 N N/A 29.98 1015 9 14 N/A
1:53 am 01:53 Clear with Mist and Fog 69 20.6 67 19.4 93 93 N N/A 29.97 1015 5 8 N/A
2:53 am 02:53 Clear with Mist and Fog 68 20 66 18.9 93 93 N N/A 29.96 1015 4 6 N/A
3:19 am 03:19 Clear with Mist and Fog 68 20 66 18.9 93 93 N N/A 29.96 1015 3 4 N/A
3:53 am 03:53 Clear with Mist and Fog 68 20 67 19.4 96 96 N N/A 29.96 1014 3 4 N/A
4:29 am 04:29 Clear with Mist and Fog 67 19.4 66 18.9 97 97 N N/A 29.96 1015 1 2 N/A
4:53 am 04:53 Clear with Mist and Fog 67 19.4 66 18.9 97 97 N N/A 29.95 1014 2 3 N/A
5:01 am 05:01 Clear with Mist and Fog 68 20 66 18.9 93 93 N N/A 29.96 1015 3 4 N/A
5:53 am 05:53 Clear with Mist and Fog 65 18.3 65 18.3 100 100 N N/A 29.96 1015 1 2 N/A
6:11 am 06:11 Clear with Mist and Fog 66 18.9 65 18.3 96 96 N N/A 29.97 1015 2 3 N/A
6:14 am 06:14 Mostly Cloudy with Fog 66 18.9 64 17.8 93 93 N N/A 29.97 1015 1 1 N/A
6:23 am 06:23 Mostly Cloudy with Fog 66 18.9 65 18.3 96 96 N N/A 29.97 1015 0 0 N/A
6:29 am 06:29 Mostly Cloudy with Mist and Fog 67 19.4 66 18.9 97 97 N N/A 29.98 1015 1 2 N/A
6:44 am 06:44 Sunny with Mist and Fog 67 19.4 66 18.9 97 97 N N/A 29.98 1015 2 2 N/A
6:53 am 06:53 Sunny with Mist and Fog 67 19.4 66 18.9 97 97 N N/A 29.97 1015 3 5 N/A
7:53 am 07:53 Sunny with Mist and Fog 71 21.7 68 20 90 90 N N/A 29.98 1015 3 5 N/A
8:53 am 08:53 Hazy 76 24.4 70 21.1 82 82 N N/A 29.98 1015 6 10 N/A
9:53 am 09:53 Sunny 82 27.8 69 20.6 65 65 N N/A 29.98 1015 8 13 N/A
10:53 am 10:53 Sunny 86 30 69 20.6 57 57 N N/A 29.98 1015 10 16 N/A
11:53 am 11:53 Sunny 88 31.1 67 19.4 50 50 N N/A 29.98 1015 10 16 N/A
12:53 pm 12:53 Sunny 89 31.7 70 21.1 53 53 S 7 11 29.97 1015 10 16 N/A
1:53 pm 13:53 Sunny 90 32.2 67 19.4 47 47 S 9 15 29.97 1015 10 16 N/A
2:53 pm 14:53 Sunny 92 33.3 66 18.9 43 43 S 8 13 29.95 1014 10 16 N/A
3:53 pm 15:53 Sunny 91 32.8 64 17.8 41 41 VRB 3 6 29.94 1014 10 16 N/A
4:53 pm 16:53 Sunny 92 33.3 66 18.9 43 43 N N/A 29.93 1013 10 16 N/A
5:53 pm 17:53 Sunny 91 32.8 67 19.4 45 45 S 8 13 29.91 1013 10 16 N/A
6:53 pm 18:53 Sunny 89 31.7 68 20 50 50 S 6 9 29.90 1013 10 16 N/A
7:53 pm 19:53 Sunny 86 30 73 22.8 65 65 undefined N/A 29.90 1013 10 16 N/A
8:53 pm 20:53 Sunny 79 26.1 71 21.7 77 77 N N/A 29.91 1013 10 16 N/A
9:53 pm 21:53 Clear 75 23.9 70 21.1 84 84 N N/A 29.93 1013 10 16 N/A
10:53 pm 22:53 Clear 74 23.3 68 20 82 82 N N/A 29.95 1014 10 16 N/A
11:53 pm 23:53 Clear 73 22.8 68 20 84 84 NNE 3 6 29.94 1014 7 11 N/A

Powered by AerisWeather